User: anonymous   Login
Location: Unspecified
(0.0000°N, 0.0000°E)
Time: 18:23:33
(UTC+00:00)
Language:

STARLINK-32801 - Orbit

View from above orbital plane
View from above orbital plane
View from above satellite
View from above satellite

Ground track
Ground track

The orbit is defined by the following mean orbital elements,

1 63035U          26145.32782575 +.00000000 +00000-0 +67947-3 0 00003
2 63035  53.1595 261.9225 0001028 101.5602 258.5516 15.34367311    06
Epoch (UTC): 25 May 2026 07:52:04
Eccentricity: 0.0001028
inclination: 53.1595°
perigee height: 462 km
apogee height: 464 km
right ascension of ascending node: 261.9225°
argument of perigee: 101.5602°
revolutions per day: 15.34367311
mean anomaly at epoch: 258.5516°

The dashed part of the orbit path shows where the satellite is in the earth's shadow,  

DLR